Location: Janeiro
(34.9957°N, 76.7652°W)
Time: 10:27:32
(UTC+00:00)

Cosmos 1975 - Pass Details

Date: 14 December 2019
Orbit: 543 x 561 km, 82.5° (Epoch: 23 January)

Event Time Altitude Azimuth Distance (km) Brightness Sun altitude
Rises 23:48:12 0° 344° (NNW) 2,716 6.4 -22.2°
Reaches altitude 10° 23:50:27 10° 337° (NNW) 1,821 5.6 -22.6°
Maximum altitude 23:54:12 39° 268° (W) 833 4.2 -23.4°
Drops below altitude 10° 23:57:56 10° 199° (SSW) 1,818 5.8 -24.1°
Sets 00:00:11 0° 191° (S) 2,710 6.7 -24.6°
